Tracking 25686 objects as of 26-May-2022
HD Live streaming from Space Station
objects crossing your sky now

FLOCK 3S 1

Track FLOCK 3S 1 now!
10-day predictions
FLOCK 3S 1 is classified as:


NORAD ID: 43769
Int'l Code: 2018-099M
Perigee: 576.7 km
Apogee: 595.5 km
Inclination: 97.6 °
Period: 96.3 minutes
Semi major axis: 6957 km
RCS: Unknown
Launch date: December 3, 2018
Source: United States (US)
Launch site: AIR FORCE WESTERN TEST RANGE (AFWTR)
aabbcc
Your satellite tracking list
Your tracking list is empty




NASA's NSSDC Master Catalog

Two Line Element Set (TLE):
1 43769U 18099M   22145.68190479  .00002055  00000-0  18753-3 0  9993
2 43769  97.6211 212.0258 0013458 357.9438   2.1726 14.96100881189607
Source of the keplerian elements: AFSPC